Sitka, AK

3:35 AM AKDT on March 24, 2017 (GMT -0800)
Sitka Rocky Gutierrez

Weather History for PASI - September, 2012

Change the Weather History Date:

Friday, September 28, 2012

  Actual Average Record
Temperature  
Mean Temperature 50 °F -  
Max Temperature 53 °F 54 °F 66 °F (2003)
Min Temperature 46 °F 46 °F 23 °F (1971)
Degree Days  
Heating Degree Days 16    
Moisture  
Dew Point 46 °F    
Average Humidity 88    
Maximum Humidity 100    
Minimum Humidity 76    
Precipitation  
Precipitation 1.26 in - - ()
Sea Level Pressure  
Sea Level Pressure 29.77 in    
Wind  
Wind Speed 9 mph (ESE)    
Max Wind Speed 14 mph    
Max Gust Speed 24 mph    
Visibility 8 miles    
Events Rain , Thunderstorm    
Averages and records for this station are not official NWS values.
T = Trace of Precipitation, MM = Missing Value Source: NWS Daily Summary

Daily Weather History Graph

Daily Weather History Graph

Search for Another Location

Airport or City:

Trip Planner

Search our weather history database for the weather conditions in past years. The results will help you decide how hot, cold, wet, or windy it might be!

Date:

Astronomy

Sep. 28, 2012 Rise Set
Actual Time 7:00 AM AKDT 6:42 PM AKDT
Civil Twilight 6:22 AM AKDT 7:20 PM AKDT
Nautical Twilight 5:37 AM AKDT 8:04 PM AKDT
Astronomical Twilight 4:50 AM AKDT 8:51 PM AKDT
Moon 5:48 PM AKDT (9/28) 5:31 AM AKDT (9/28)
Length of Visible Light 12h 58m
Length of Day
11h 42m
Waxing Gibbous, 98% of the Moon is Illuminated
Sep 28
Waxing Gibbous
Sep 29
Full
Oct 7
Last Quarter
Oct 15
New
Oct 21
First Quarter

Hourly Weather History & Observations

Time (AKDT) Temp. Windchill Dew Point Humidity Pressure Visibility Wind Dir Wind Speed Gust Speed Precip Events Conditions
12:53 AM 52.0 °F - 46.9 °F 83% 29.68 in 10.0 mi South 13.8 mph 24.2 mph 0.09 in   Overcast
1:53 AM 50.0 °F - 45.0 °F 83% 29.69 in 10.0 mi ESE 6.9 mph - 0.08 in   Overcast
2:17 AM 48.2 °F - 46.4 °F 93% 29.69 in 9.0 mi ESE 11.5 mph 17.3 mph 0.03 in Rain Light Rain
2:53 AM 48.9 °F - 46.0 °F 90% 29.68 in 3.0 mi Calm Calm - 0.11 in Rain Rain
3:07 AM 48.2 °F - 46.4 °F 93% 29.69 in 10.0 mi ESE 9.2 mph - 0.01 in Rain , Thunderstorm Light Thunderstorms and Rain
3:17 AM 48.2 °F - 46.4 °F 93% 29.69 in 10.0 mi ESE 9.2 mph - 0.01 in   Overcast
3:53 AM 50.0 °F - 46.0 °F 86% 29.70 in 7.0 mi SSE 11.5 mph 17.3 mph 0.02 in Rain Light Rain
4:29 AM 51.8 °F - 44.6 °F 76% 29.70 in 10.0 mi ESE 10.4 mph - 0.00 in Rain Light Rain
4:53 AM 51.1 °F - 45.0 °F 80% 29.69 in 9.0 mi SE 9.2 mph - 0.01 in Rain Light Rain
5:53 AM 48.9 °F - 46.9 °F 93% 29.72 in 2.5 mi South 9.2 mph - 0.17 in Rain Heavy Rain
6:00 AM 48.2 °F - 46.4 °F 93% 29.71 in 2.0 mi South 8.1 mph 16.1 mph 0.07 in Rain Heavy Rain
6:07 AM 48.2 °F - 46.4 °F 93% 29.71 in 3.0 mi Variable 5.8 mph 16.1 mph 0.09 in Rain Rain
6:30 AM 48.2 °F - 46.4 °F 93% 29.72 in 2.5 mi ESE 6.9 mph - 0.19 in Rain Heavy Rain
6:33 AM 48.2 °F - 46.4 °F 93% 29.73 in 3.0 mi ESE 8.1 mph - 0.22 in Rain Heavy Rain
6:37 AM 48.2 °F - 46.4 °F 93% 29.72 in 2.5 mi East 9.2 mph - 0.25 in Rain Heavy Rain
6:46 AM 46.4 °F 41.5 °F 46.4 °F 100% 29.72 in 5.0 mi East 10.4 mph - 0.27 in Rain Light Rain
6:53 AM 48.0 °F - 46.0 °F 93% 29.73 in 4.0 mi East 11.5 mph - 0.29 in Rain Light Rain
7:53 AM 48.9 °F - 46.0 °F 90% 29.74 in 10.0 mi ESE 6.9 mph - 0.01 in Rain Light Rain
8:53 AM 50.0 °F - 46.9 °F 89% 29.75 in 6.0 mi ESE 5.8 mph - 0.07 in Rain Light Rain
9:23 AM 48.2 °F - 46.4 °F 93% 29.76 in 10.0 mi ESE 6.9 mph - 0.00 in   Overcast
9:53 AM 51.1 °F - 46.0 °F 83% 29.77 in 10.0 mi ESE 9.2 mph - 0.00 in   Overcast
10:46 AM 51.8 °F - 46.4 °F 82% 29.78 in 10.0 mi ESE 8.1 mph - N/A   Overcast
10:53 AM 51.1 °F - 46.9 °F 86% 29.78 in 10.0 mi ESE 9.2 mph - N/A   Overcast
11:03 AM 51.8 °F - 46.4 °F 82% 29.78 in 10.0 mi SE 8.1 mph - N/A   Overcast
11:53 AM 53.1 °F - 46.9 °F 80% 29.79 in 10.0 mi ESE 8.1 mph - N/A   Mostly Cloudy
12:00 PM 53.6 °F - 46.4 °F 77% 29.79 in 10.0 mi SSE 5.8 mph - N/A   Mostly Cloudy
12:15 PM 51.8 °F - 46.4 °F 82% 29.80 in 4.0 mi South 11.5 mph 17.3 mph 0.02 in Rain Rain
12:21 PM 51.8 °F - 46.4 °F 82% 29.80 in 2.5 mi SSE 11.5 mph 19.6 mph 0.03 in Rain Rain
12:28 PM 51.8 °F - 48.2 °F 88% 29.80 in 5.0 mi SSE 9.2 mph - 0.03 in Rain Light Rain
12:53 PM 51.1 °F - 46.0 °F 83% 29.80 in 10.0 mi South 8.1 mph - 0.03 in Rain Light Rain
1:53 PM 51.1 °F - 46.9 °F 86% 29.81 in 10.0 mi SE 9.2 mph - 0.02 in   Overcast
2:16 PM 51.8 °F - 46.4 °F 82% 29.81 in 9.0 mi South 12.7 mph - 0.00 in Rain Light Rain
2:30 PM 51.8 °F - 48.2 °F 88% 29.81 in 7.0 mi SSE 10.4 mph - 0.03 in Rain Light Rain
2:53 PM 51.1 °F - 48.0 °F 89% 29.82 in 7.0 mi South 8.1 mph - 0.03 in Rain Light Rain
3:53 PM 50.0 °F - 46.9 °F 89% 29.83 in 10.0 mi East 9.2 mph - 0.03 in   Overcast
4:53 PM 50.0 °F - 45.0 °F 83% 29.83 in 10.0 mi ESE 11.5 mph - 0.00 in   Overcast
5:53 PM 50.0 °F - 45.0 °F 83% 29.83 in 9.0 mi ESE 8.1 mph - 0.00 in Rain Light Rain
6:30 PM 48.2 °F - 46.4 °F 93% 29.82 in 10.0 mi East 4.6 mph - 0.06 in   Overcast
6:45 PM 48.2 °F - 44.6 °F 87% 29.82 in 10.0 mi East 8.1 mph - 0.06 in   Overcast
6:53 PM 50.0 °F - 46.0 °F 86% 29.83 in 10.0 mi ESE 8.1 mph - 0.06 in   Overcast
7:53 PM 48.0 °F - 45.0 °F 89% 29.84 in 5.0 mi ESE 5.8 mph - 0.12 in Rain Light Rain
8:53 PM 48.0 °F - 45.0 °F 89% 29.84 in 10.0 mi East 8.1 mph - 0.00 in   Mostly Cloudy
9:53 PM 48.0 °F - 45.0 °F 89% 29.85 in 6.0 mi East 8.1 mph - 0.06 in Rain Rain
10:46 PM 46.4 °F 43.5 °F 44.6 °F 93% 29.85 in 10.0 mi East 5.8 mph - 0.05 in Rain Light Rain
10:53 PM 46.9 °F - 45.0 °F 93% 29.86 in 10.0 mi ESE 8.1 mph - 0.05 in   Overcast
11:07 PM 46.4 °F 42.9 °F 44.6 °F 93% 29.85 in 10.0 mi East 6.9 mph - 0.00 in Rain Light Rain
11:53 PM 48.0 °F - 45.0 °F 89% 29.85 in 9.0 mi East 11.5 mph - 0.01 in Rain Light Rain